CW4482 Weather Reports


Display with metric or nautical units.
time (UTC)temp
F
wind
direction
speed
MPH
gust
MPH
rain 1hr
in
rain 24hr
in
rain mn
in
humidity
%
barometer
mb
20260509204517 90 268 0.0 0.0 0.00 0.05 0.05 64 1007.6
20260509203019 89 259 0.0 0.0 0.00 0.05 0.05 67 1007.7
20260509201529 88 250 0.0 0.0 0.00 0.05 0.05 63 1007.9
20260509200052 88 245 0.0 0.0 0.00 0.05 0.05 72 1008.2
20260509194536 88 236 0.0 0.0 0.00 0.05 0.05 65 1008.3
20260509193059 88 227 0.0 0.0 0.00 0.05 0.05 69 1008.4
20260509191514 88 224 0.0 0.0 0.00 0.05 0.05 70 1008.6
20260509190013 87 193 0.0 0.0 0.00 0.05 0.05 69 1008.7
20260509184512 87 192 0.0 4.0 0.00 0.07 0.05 72 1008.9
20260509183047 87 190 0.0 0.0 0.00 0.07 0.05 75 1009.1
20260509181550 86 175 0.0 0.0 0.00 0.07 0.05 78 1009.2
20260509180051 85 214 0.0 3.0 0.00 0.07 0.05 76 1009.6
20260509174514 83 188 2.0 4.0 0.00 0.09 0.05 84 1009.7
20260509173036 81 184 1.0 6.0 0.00 0.09 0.05 86 1010.0
20260509171532 81 196 2.0 5.0 0.00 0.09 0.05 86 1010.0
20260509170017 80 360 1.0 2.0 0.00 0.09 0.05 88 1010.1
20260509164516 80 360 0.0 3.0 0.00 0.10 0.05 89 1010.1
20260509163028 79 360 0.0 2.0 0.00 0.10 0.05 90 1010.1
20260509161516 79 360 0.0 1.0 0.00 0.10 0.05 92 1010.2
20260509160020 78 360 0.0 1.0 0.00 0.10 0.05 95 1010.1
20260509154519 78 360 0.0 0.0 0.00 0.11 0.05 96 1010.2
20260509153024 77 360 0.0 0.0 0.00 0.11 0.05 96 1010.2
20260509151512 76 360 0.0 0.0 0.00 0.11 0.05 96 1010.3
20260509150034 76 360 0.0 0.0 0.00 0.11 0.05 96 1010.1
20260509144529 76 360 0.0 0.0 0.00 0.11 0.05 97 1010.0
20260509143028 76 360 0.0 0.0 0.00 0.11 0.05 97 1009.9
20260509141530 76 360 0.0 0.0 0.00 0.11 0.05 97 1009.8
20260509140015 76 360 0.0 2.0 0.00 0.11 0.05 97 1009.6
20260509134517 75 360 0.0 2.0 0.00 0.11 0.05 97 1009.6
20260509133029 75 360 0.0 2.0 0.00 0.11 0.05 97 1010.2
20260509131536 75 360 0.0 0.0 0.00 0.11 0.05 97 1010.2
20260509130016 74 360 0.0 1.0 0.00 0.11 0.05 97 1010.3
20260509124543 73 360 0.0 0.0 0.00 0.11 0.05 96 1010.2
20260509123049 73 360 0.0 0.0 0.00 0.11 0.05 96 1010.0
20260509121516 73 360 0.0 0.0 0.00 0.11 0.05 96 1009.7
20260509120012 72 360 1.0 2.0 0.00 0.11 0.05 96 1009.5
20260509114536 72 360 0.0 0.0 0.00 0.11 0.05 96 1009.7
20260509113036 73 360 0.0 0.0 0.00 0.11 0.05 96 1009.7
20260509111538 72 360 0.0 0.0 0.00 0.11 0.05 96 1010.2
20260509110017 72 360 0.0 0.0 0.00 0.11 0.05 96 1009.9
20260509104522 72 360 0.0 0.0 0.00 0.11 0.05 96 1009.4
20260509103026 72 360 0.0 0.0 0.00 0.11 0.05 96 1009.4
20260509101549 72 360 0.0 0.0 0.00 0.11 0.05 96 1009.2
20260509100025 72 360 0.0 0.0 0.00 0.11 0.05 96 1008.9
20260509094545 72 360 0.0 0.0 0.00 0.11 0.05 96 1009.0
20260509093026 72 360 0.0 0.0 0.00 0.11 0.05 96 1009.3
20260509091530 72 360 0.0 0.0 0.00 0.11 0.05 96 1009.2
20260509090029 72 360 0.0 0.0 0.00 0.11 0.05 96 1009.0
20260509084552 72 360 0.0 0.0 0.00 0.11 0.05 96 1009.2
20260509083032 72 360 0.0 0.0 0.00 0.11 0.05 96 1009.1
20260509081557 72 360 0.0 0.0 0.00 0.11 0.05 96 1009.1
20260509080029 73 360 0.0 0.0 0.00 0.11 0.05 96 1009.3
20260509074527 73 360 0.0 0.0 0.00 0.11 0.05 96 1009.4
20260509073025 73 360 0.0 0.0 0.00 0.11 0.05 96 1009.8
20260509071525 73 360 0.0 0.0 0.04 0.11 0.05 96 1009.8
20260509070028 73 360 0.0 0.0 0.05 0.11 0.05 96 1009.4
20260509064552 73 360 0.0 0.0 0.05 0.11 0.05 96 1009.5
20260509063032 73 360 0.0 0.0 0.05 0.11 0.05 96 1009.7
20260509061530 73 360 0.0 0.0 0.00 0.06 0.00 96 1009.9
20260509060023 73 360 0.0 0.0 0.00 0.06 0.00 96 1009.9
20260509054526 73 360 0.0 0.0 0.00 0.06 0.00 96 1009.9
20260509053048 72 360 0.0 0.0 0.00 0.06 0.00 96 1010.0
20260509051527 72 360 0.0 0.0 0.00 0.06 0.00 96 1010.0
20260509050025 72 360 0.0 0.0 0.00 0.06 0.00 96 1010.0
20260509044546 72 360 0.0 0.0 0.00 0.06 0.06 96 1010.3
20260509043029 72 360 0.0 0.0 0.00 0.06 0.06 96 1010.3
20260509041531 72 360 0.0 0.0 0.00 0.06 0.06 96 1009.9
20260509040026 72 360 0.0 0.0 0.00 0.06 0.06 95 1009.8
20260509034525 72 360 0.0 0.0 0.00 0.06 0.06 95 1009.8
20260509033025 72 360 0.0 0.0 0.00 0.06 0.06 96 1009.8
20260509031530 72 360 0.0 0.0 0.00 0.06 0.06 96 1009.8
20260509030024 72 360 0.0 0.0 0.00 0.06 0.06 95 1009.7
20260509024526 72 360 0.0 0.0 0.00 0.06 0.06 95 1009.6
20260509023029 72 360 0.0 0.0 0.00 0.06 0.06 95 1009.0
20260509021534 72 360 0.0 0.0 0.00 0.06 0.06 95 1009.4
20260509020017 72 360 0.0 0.0 0.00 0.06 0.06 95 1009.2
20260509014515 72 360 0.0 0.0 0.00 0.06 0.06 95 1009.1
20260509013038 72 360 0.0 0.0 0.00 0.06 0.06 95 1009.1
20260509011514 72 360 0.0 0.0 0.00 0.06 0.06 95 1009.0
20260509010035 72 360 0.0 0.0 0.00 0.06 0.06 95 1009.0
20260509004514 72 360 0.0 0.0 0.00 0.06 0.06 95 1008.8
20260509003024 72 360 0.0 0.0 0.00 0.06 0.06 95 1008.9
20260509001555 72 360 0.0 0.0 0.00 0.06 0.06 95 1009.0
20260509000035 72 360 0.0 0.0 0.00 0.06 0.06 95 1009.0
20260508234527 73 360 0.0 0.0 0.00 0.06 0.06 94 1009.4
20260508233039 73 360 0.0 0.0 0.00 0.06 0.06 94 1009.3
20260508231530 73 360 0.0 0.0 0.00 0.06 0.06 94 1009.1
20260508230024 73 360 0.0 0.0 0.00 0.06 0.06 94 1009.0
20260508224528 73 360 0.0 0.0 0.00 0.06 0.06 94 1009.0
20260508223026 73 360 0.0 0.0 0.00 0.06 0.06 94 1009.2
20260508221530 73 360 0.0 0.0 0.00 0.06 0.06 94 1009.1
20260508220025 73 360 0.0 0.0 0.00 0.06 0.06 94 1009.2
20260508214528 72 360 0.0 0.0 0.00 0.06 0.06 94 1009.6
20260508213036 73 360 0.0 0.0 0.00 0.06 0.06 94 1009.6
20260508211519 72 360 0.0 0.0 0.00 0.06 0.06 94 1009.3
20260508210012 72 360 0.0 0.0 0.00 0.06 0.06 94 1009.8